www.pogodaiklimat.ru

Погода и климат >> Архив погоды >> Россия >> Крым >> Черноморское


АРХИВ ПОГОДЫ в Черноморском

Время (UTC), дата Ветер
(напр.,м/с)
 
Видим.   Явления Облачность Т
(С)
Тd
(С)
f
(%)
Тe
(С)
Тes
(С)
Комфортность P
(гПа)
Po
(гПа)
Тmin
(С)
Tmax
(С)
R
(мм)
R24
(мм)
S
(см)
06 16.08 СЗ 5 10 км 3/3 600 м
[Sc]
+21.6 +17.9 79 +26 +28 душно 1009.9 1008.7 +20.8
09 16.08 СЗ 4 20 км 9/0
[Cc]
+23.6 +18.4 73 +28 +36 душно 1010.4 1009.2
12 16.08 СЗ 7 20 км 9/0
[Cc]
+23.0 +17.7 72 +28 +31 душно 1009.7 1008.5
15 16.08 СЗ 7-10
{10}
20 км 9/0
[Ac As Cc]
+23.4 +16.3 64 +28 +29 душно 1010.2 1009.0
18 16.08 СЗ 5
{11}
20 км 10/10 600 м
[Cb cap]
+22.6 +15.7 65 +27 +27 душно 1011.6 1010.4 +24.2
21 16.08 СЗ 5
{10}
20 км 10/4 600 м
[Cb cap Ac trans]
+22.8 +13.9 57 +26 +26 жарко 1012.1 1010.9
00 17.08 С 6 20 км 1/0
[Cc]
+21.1 +13.1 60 +23 +23 комфорт 1012.0 1010.8
03 17.08 СЗ 6
{10}
20 км 1/0
[Cc]
+19.8 +13.9 69 +21 +21 комфорт 1012.8 1011.6 +19.7
06 17.08 СЗ 5
{10}
20 км 1/1 600 м
[Cu hum]
+20.4 +13.0 62 +22 +25 комфорт 1013.2 1012.0 +19.5
09 17.08 СЗ 5 20 км 1/1 600 м
[Cu hum]
+21.8 +13.1 58 +24 +32 комфорт 1013.6 1012.4
12 17.08 СЗ 6 20 км 4/0
[Cc]
+22.5 +11.9 51 +25 +29 комфорт 1013.0 1011.8
15 17.08 З 6
{10}
20 км 9/0
[Ac trans Ci fib]
+22.8 +12.3 52 +26 +26 жарко 1012.4 1011.2
18 17.08 СЗ 5 20 км 1/0
[Ci fib]
+22.8 +11.4 49 +25 +25 комфорт 1012.5 1011.3 +23.0
21 17.08 СВ 3 20 км 8/0
[Ci fib]
+22.8 +12.3 52 +26 +26 жарко 1013.0 1011.8
00 18.08 С 2 20 км 9/0
[Ci fib]
+16.8 +12.7 77 +17 +17 1012.9 1011.7
03 18.08 С 5 20 км 9/1 600 м
[Cu hum Cc]
+19.8 +13.5 67 +21 +21 комфорт 1013.2 1012.0 +16.7
06 18.08 С 6
{10}
20 км 9/3 600 м
[Cu hum Cc]
+20.2 +13.0 63 +22 +23 комфорт 1013.8 1012.6 +16.7
09 18.08 СЗ 5
{10}
20 км 9/8 600 м
[Cu hum Cc]
+20.0 +13.5 66 +22 +23 комфорт 1014.5 1013.3
12 18.08 СЗ 3 20 км 8/3 600 м
[Cu hum Cc]
+21.5 +14.6 65 +25 +30 комфорт 1015.0 1013.8
15 18.08 З 3 20 км 6/1 600 м
[Cu hum Cc]
+22.6 +15.3 63 +26 +28 жарко 1015.3 1014.1
18 18.08 З 2 20 км 3/0
[Ac trans Ci fib]
+21.2 +16.1 73 +25 +25 комфорт 1015.9 1014.7 +22.8
21 18.08 Ю 1 10 км 1/0
[Ac trans]
+17.3 +14.7 85 +18 +18 1016.6 1015.4
00 19.08 Ю 2 10 км ясно +16.5 +13.8 84 +17 +17 1016.6 1015.4
03 19.08 Ю 1 10 км 3/0
[Ac trans]
+16.4 +14.7 90 +17 +17 1017.4 1016.2 +16.3
06 19.08 СВ 3 20 км ясно +23.4 +16.3 64 +28 +33 душно 1018.2 1017.0 +16.0
09 19.08 СВ 4 20 км 3/3 600 м
[Cu hum]
+24.0 +15.7 60 +27 +34 жарко 1018.7 1017.5
12 19.08 С 3 20 км 3/3 600 м
[Cu hum]
+25.0 +15.7 56 +28 +35 жарко 1018.5 1017.3
15 19.08 СЗ 3 20 км ясно +24.8 +16.0 58 +28 +30 жарко 1018.5 1017.3
18 19.08 СЗ 3 20 км ясно +23.7 +17.2 67 +28 +28 душно 1019.1 1017.9 +26.0
21 19.08 СЗ 3 20 км ясно +23.2 +18.6 75 +29 +29 душно 1019.4 1018.2
00 20.08 штиль 0 10 км ясно +20.0 +16.3 79 +22 +22 комфорт 1019.1 1017.9
03 20.08 штиль 0 10 км 3/0
[Ci fib]
+17.8 +15.4 86 +18 +18 1019.6 1018.4 +17.4
06 20.08 С 4 20 км ясно +23.8 +17.6 68 +28 +32 душно 1019.9 1018.7 +17.2
09 20.08 С 5 20 км 3/1 600 м
[Cu hum Ci]
+25.2 +17.7 63 +29 +36 душно 1020.0 1018.8
12 20.08 С 6 20 км 1/1 600 м
[Cu hum]
+26.6 +19.4 65 +32 +36 очень
душно
1018.9 1017.7
15 20.08 С 5 20 км 8/0
[Cc]
+25.7 +19.8 70 +31 +32 очень
душно
1018.5 1017.3
18 20.08 С 4 20 км 10/0
[Ac trans]
+24.8 +20.7 78 +31 +31 очень
душно
1019.2 1018.0 +27.4
21 20.08 В 3 20 км 1/1 600 м
[Cb cap]
+24.5 +18.7 70 +29 +29 душно 1019.1 1017.9
00 21.08 СВ 3 20 км 1/0
[Cc]
+23.5 +18.9 75 +28 +28 душно 1018.3 1017.1
03 21.08 В 2 20 км 6/0
[Ac trans Cc]
+22.4 +18.4 78 +28 +28 душно 1018.0 1016.8 +22.3
06 21.08 СВ 5 20 км 8/0
[Ci fib]
+24.6 +19.1 71 +30 +32 очень
душно
1017.8 1016.6 +22.0
09 21.08 СВ 5 20 км 4/1 600 м
[Cu hum Ci fib]
+27.0 +19.1 62 +32 +39 очень
душно
1016.8 1015.6
12 21.08 С 5 20 км 6/3 600 м
[Cu med, cong Ci fib]
+28.6 +18.9 56 +34 +38 очень
душно
1015.4 1014.2
15 21.08 С 4 20 км 3/3 600 м
[Cu hum]
+27.4 +19.9 64 +34 +34 очень
душно
1014.9 1013.7
18 21.08 СВ 5 20 км 9/1 600 м
[Cu hum Cc]
+25.9 +19.1 66 +31 +31 очень
душно
1015.4 1014.2 +29.0
21 21.08 СВ 5 20 км 9/0
[Ac As Cc]
+24.8 +17.6 64 +29 +29 душно 1015.0 1013.8
00 22.08 СВ 3 20 км 10/0
[Ac As]
+23.4 +19.0 76 +30 +30 очень
душно
1015.1 1013.9
03 22.08 С 3 20 км 9/0
[Ac As Cc]
+23.2 +18.3 74 +29 +29 душно 1015.0 1013.8 +23.1
06 22.08 С 3 20 км 9/0
[Ac As Cc]
+23.6 +18.2 72 +28 +31 душно 1016.1 1014.9 +23.1
09 22.08 СЗ 3 20 км 8/0
[Ac As Cc]
+26.2 +17.8 60 +31 +39 очень
душно
1015.8 1014.6
12 22.08 СЗ 3 20 км 6/0
[Cc]
+28.8 +19.1 56 +34 +43 очень
душно
1015.3 1014.2
15 22.08 СЗ 3 20 км 6/0
[Cc]
+28.0 +20.8 65 +35 +36 очень
душно
1014.7 1013.5
18 22.08 С 2 20 км 1/0
[Cc]
+25.4 +20.5 74 +31 +31 очень
душно
1015.9 1014.7 +29.5
21 22.08 В 2 20 км ясно +23.0 +19.4 80 +29 +29 очень
душно
1016.2 1015.0
00 23.08 СВ 3 10 км ясно +22.6 +19.3 82 +29 +29 очень
душно
1016.4 1015.2
03 23.08 СВ 3 10 км ясно +22.4 +19.3 83 +28 +28 душно 1017.3 1016.1 +22.2

 

Местоположение метеостанции Черноморское (Крым, Россия): широта 45.52 долгота 32.70 высота над уровнем моря 10 м.

В архиве по умолчанию представлена погода в Черноморском за последнюю неделю. Архивные данные за месяц целиком и за предыдущие месяцы, начиная с января 2011 года, Вы можете получить, выбрав интересующий диапазон дат из раскрывающегося списка и нажав кнопку "Ввод!".


*Определитесь, кто Вы:
робот инопланетянин человек

Внимание! Время в таблицах - всемирное. Для получения местного времени необходимо прибавить поправку, которая равна 3 ч.

Смотрите также архив погоды в соседних городах и на ближайших метеорологических станциях:

Погода в Евпатории (Крым, Россия) (65 км)
Погода в Раздольном (Крым, Россия) (67 км)
Погода в Хорлах (Херсонская область, Украина) (83 км)
Погода в Бехтерах (Херсонская область, Украина) (87 км)
Погода в Ишуни (Крым, Россия) (98 км)
Погода в Симферополе (Крым, Россия) (113 км)
Погода в Клепинино (Крым, Россия) (115 км)
Погода в Херсонесском Маяке (город Севастополь, Россия) (117 км)
Погода в Севастополе (город Севастополь, Россия) (119 км)
Погода в Херсоне (Херсонская область, Украина) (124 км)

Пояснения к столбцам:

Ветер - указаны скорость ветра в м/с - средняя за 10 мин, порывы в срок и между сроками (в фигурных скобках) и направление, откуда дует ветер: С - северный, СВ - северо-восточный, В - восточный, ЮВ - юго-восточный, Ю - южный, ЮЗ - юго-западный, З - западный, СЗ - северо-западный.
Видимость - горизонтальная дальность видимости в метрах или километрах. При видимости от 1 до 10 км при отсутствии осадков обычно наблюдается дымка, при ухудшении видимости до 1 км и менее - туман. В сухую погоду видимость может ухудшаться дымом, пылью или мглою.
Явления - указаны атмосферные явления, наблюдавшиеся в срок или в последний час перед сроком; фигурными скобками обозначены явления, наблюдавшиеся между сроками (за 1-3 часа до срока); квадратными скобками обозначены град или гололедные отложения с указанием их диаметра в мм.
Облачность - указаны через наклонную черту общая и нижняя облачность в баллах и высота нижней границы облаков в метрах; квадратными скобками обозначены формы облаков: Ci - перистые, Cs - перисто-слоистые, Cc - перисто-кучевые, Ac - высококучевые, As - высокослоистые, Sc - слоисто-кучевые, Ns - слоисто-дождевые, Cu - кучевые, Cb - кучево-дождевые. Подробнее классификацию облаков см. в Атласе облаков (PDF).
T - Температура воздуха - температура, измеренная на высоте 2 м над землей.
Td - Температура точки росы - температура, при понижении до которой содержащийся в воздухе водяной пар достигнет насыщения.
f - Относительная влажность воздуха - влажноcть воздуха, измеренная на высоте 2 м над землей.
Te - Эффективная температура - температура, которую ощущает одетый по сезону человек в тени. Характеристика душности погоды. При расчете учитывается влияние влажности воздуха и скорости ветра на теплоощущения человека.
Tes - Эффективная температура на солнце - температура, которую ощущает человек, с поправкой на солнечный нагрев. Характеристика знойности погоды. Зависит от высоты солнца над горизонтом, облачности и скорости ветра. Ночью, в пасмурную погоду, а также при ветре 12 м/с и более поправка равна нулю.
P - Атмосферное давление - приведенное к уровню моря атмосферное давление.
Po - Атмосферное давление - измеренное на уровне метеостанции атмосферное давление.
Tmin - Минимальная температура - минимум температуры воздуха на высоте 2 м над землей.
Tmax - Максимальная температура - максимум температуры воздуха на высоте 2 м над землей.
R - Количество осадков - Количество выпавших осадков за период времени, мм. При наведении курсора мыши на число - период времени, за который выпало указанное количество осадков.
R24 - Количество осадков - Количество выпавших осадков за 24 часа, мм.
S - Снежный покров - Высота снежного покрова, см. При наведении курсора мыши на число - состояние снежного покрова и степень покрытия местности в баллах.